Back to catalog

ARIANE 1 DEB

LostHEO
NORAD 26535·DEBRIS·🇫🇷 France

Launched Dec 24, 1979 from Guiana Space Centre

Loading…

Next Passes (next 24 hours)

TLE

StaleSource: Space-Track

Epoch: Jan 20, 2026, 00:27 UTC

1 26535U 79104R   26020.01928243  .00008863  00000-0  64818-2 0  9995
2 26535  19.7649 302.5813 5873784 209.2436  98.6241  4.14593032188423

Track ARIANE 1 DEB in real time with AllMySat

Download on the App Store